Location: Unspecified
(0.0000°N, 0.0000°E)
Time: 19:04:28
(UTC+00:00)

Vanguard 2 - Pass Details

Date: 19 November 2019
Orbit: 553 x 2938 km, 32.9° (Epoch: 08 December)

Event Time Altitude Azimuth Distance (km) Brightness Sun altitude
Rises 03:43:17 0° 230° (SW) 6,696 12.1 -28.6°
Reaches altitude 10° 03:47:42 10° 228° (SW) 5,754 11.7 -27.6°
Maximum altitude 04:05:46 73° 145° (SE) 2,759 10.3 -23.4°
Drops below altitude 10° 04:19:18 10° 62° (ENE) 4,484 12.0 -20.2°
Sets 04:22:16 0° 61° (ENE) 5,211 12.4 -19.5°
